Date String (YYYY-MM-DD hh:mm:ss) UTC,Instrument flags,Ambient pressure (hPa),Sample flow (lpm),Bypass flow (lpm),Sample temperature (°C),Ambient temperature (°C),ASC tube jacket temperature (°C),LED temperature (°C),Box temperature (°C),Sample RH (%),Span deviation,Mass concentration (μg/m³),Mass concentration (μg/m³),Mass concentration (μg/m³)
DateTimeUTC,F1_M11,P_M11,Q1_M11,Q2_M11,T1_M11,T2_M11,T3_M11,T4_M11,T5_M11,U1_M11,ZSPAN_M11,X0_M11,X2_M11,X1_M11
2022-11-04 19:00:00,,0820.9,5.00,0.00,24.1,22.9,00.0,32.9,26.0,15.5,-000.7,0012.04,0009.57,0009.26
2022-11-04 19:01:00,,0820.9,5.00,0.00,24.1,22.9,00.0,32.9,26.0,15.9,-000.3,0011.84,0009.59,0009.29
2022-11-04 19:02:00,,0820.9,5.00,0.00,24.1,23.0,00.0,32.9,26.0,16.0,-000.2,0011.72,0009.60,0009.30
2022-11-04 19:03:00,,0821.0,5.00,0.00,24.1,23.0,00.0,32.9,26.1,15.8,-000.3,0011.68,0009.63,0009.34
2022-11-04 19:04:00,,0820.9,5.00,0.00,24.1,23.0,00.0,32.9,26.1,15.9,-000.7,0011.66,0009.64,0009.35
2022-11-04 19:05:00,,0820.9,5.00,0.00,24.2,23.0,00.0,32.9,26.1,15.8,-000.8,0011.59,0009.60,0009.35
2022-11-04 19:06:00,,0820.9,5.00,0.00,24.2,23.0,00.0,32.9,26.0,15.5,-000.7,0011.36,0009.63,0009.37
2022-11-04 19:07:00,,0820.9,4.99,0.00,24.2,23.0,00.0,32.9,26.0,15.3,-001.0,0011.59,0009.68,0009.41
2022-11-04 19:08:00,,0820.8,5.00,0.00,24.2,23.0,00.0,32.9,26.0,15.4,-001.1,0012.51,0009.67,0009.42
2022-11-04 19:09:00,,0820.8,5.00,0.00,24.2,23.0,00.0,32.9,26.1,16.4,-000.8,0012.54,0009.70,0009.44
2022-11-04 19:10:00,,0820.7,5.00,0.00,24.2,23.1,00.0,32.9,26.1,16.5,-000.7,0012.56,0009.75,0009.47
2022-11-04 19:11:00,,0820.7,5.00,0.00,24.2,23.1,00.0,32.9,26.1,15.7,-000.9,0012.46,0009.76,0009.48
2022-11-04 19:12:00,,0820.6,5.00,0.00,24.2,23.1,00.0,33.0,26.1,15.5,-001.1,0012.47,0009.78,0009.50
2022-11-04 19:13:00,,0820.7,5.00,0.00,24.2,23.1,00.0,33.0,26.2,15.7,-001.1,0012.46,0009.80,0009.52
2022-11-04 19:14:00,,0820.6,5.01,0.00,24.2,23.1,00.0,33.0,26.2,16.0,-001.0,0012.44,0009.79,0009.51
2022-11-04 19:15:00,,0820.6,5.00,0.00,24.3,23.2,00.0,33.0,26.2,15.7,-000.9,0012.53,0009.84,0009.53
2022-11-04 19:16:00,,0820.6,5.00,0.00,24.3,23.2,00.0,33.0,26.2,15.5,-000.9,0012.60,0009.89,0009.57
2022-11-04 19:17:00,,0820.6,5.00,0.00,24.3,23.2,00.0,33.0,26.2,15.6,-001.0,0012.58,0009.91,0009.57
2022-11-04 19:18:00,,0820.6,5.00,0.00,24.3,23.2,00.0,33.0,26.2,15.5,-000.8,0012.19,0009.88,0009.57
2022-11-04 19:19:00,,0820.6,5.00,0.00,24.3,23.2,00.0,33.0,26.2,15.9,-000.8,0011.29,0009.90,0009.61
2022-11-04 19:20:00,,0820.6,5.01,0.00,24.3,23.2,00.0,33.0,26.3,15.6,-000.9,0011.29,0009.92,0009.64
2022-11-04 19:21:00,,0820.6,5.00,0.00,24.3,23.2,00.0,33.0,26.3,15.7,-000.9,0011.23,0009.88,0009.61
2022-11-04 19:22:00,,0820.6,5.01,0.00,24.4,23.2,00.0,33.0,26.3,15.7,-000.6,0011.23,0009.82,0009.57
2022-11-04 19:23:00,,0820.6,5.00,0.00,24.4,23.2,00.0,33.1,26.3,15.8,-000.6,0012.05,0009.77,0009.52
2022-11-04 19:24:00,,0820.5,4.99,0.00,24.4,23.3,00.0,33.1,26.3,15.6,-000.4,0012.19,0009.75,0009.49
2022-11-04 19:25:00,,0820.5,5.01,0.00,24.4,23.3,00.0,33.1,26.3,15.7,-000.4,0012.20,0009.75,0009.48
2022-11-04 19:26:00,,0820.3,5.01,0.00,24.4,23.3,00.0,33.1,26.4,15.6,-000.3,0012.15,0009.70,0009.45
2022-11-04 19:27:00,,0820.3,4.98,0.00,24.4,23.3,00.0,33.1,26.4,15.8,-000.5,0012.07,0009.65,0009.41
2022-11-04 19:28:00,,0820.3,5.00,0.00,24.5,23.3,00.0,33.1,26.4,15.9,-000.3,0012.21,0009.60,0009.38
2022-11-04 19:29:00,,0820.3,5.01,0.00,24.5,23.3,00.0,33.1,26.4,15.6,-000.1,0012.77,0009.60,0009.36
2022-11-04 19:30:00,,0820.3,5.00,0.00,24.5,23.4,00.0,33.2,26.4,15.3,-000.5,0012.76,0009.56,0009.32
2022-11-04 19:31:00,,0820.4,5.00,0.00,24.5,23.4,00.0,33.2,26.4,15.4,-000.4,0012.72,0009.50,0009.26
2022-11-04 19:32:00,,0820.3,4.99,0.00,24.5,23.4,00.0,33.2,26.4,15.4,-000.5,0012.82,0009.49,0009.24
2022-11-04 19:33:00,,0820.3,5.01,0.00,24.5,23.4,00.0,33.2,26.4,15.6,-000.2,0012.92,0009.56,0009.28
2022-11-04 19:34:00,,0820.2,5.01,0.00,24.5,23.4,00.0,33.2,26.4,15.8,0000.1,0012.23,0009.61,0009.32
2022-11-04 19:35:00,,0820.2,5.00,0.00,24.5,23.4,00.0,33.2,26.4,15.7,0000.1,0011.99,0009.61,0009.34
2022-11-04 19:36:00,,0820.2,4.99,0.00,24.5,23.4,00.0,33.2,26.5,15.5,-000.3,0011.94,0009.59,0009.33
2022-11-04 19:37:00,,0820.2,5.00,0.00,24.5,23.4,00.0,33.3,26.5,15.6,-000.6,0011.89,0009.58,0009.33
2022-11-04 19:38:00,,0820.2,5.00,0.00,24.5,23.4,00.0,33.3,26.5,15.8,-000.6,0012.08,0009.61,0009.33
2022-11-04 19:39:00,,0820.2,5.00,0.00,24.5,23.4,00.0,33.3,26.5,15.6,-000.7,0012.46,0009.64,0009.35
2022-11-04 19:40:00,,0820.2,5.00,0.00,24.5,23.4,00.0,33.3,26.5,15.7,-001.0,0012.61,0009.64,0009.35
2022-11-04 19:41:00,,0820.2,5.00,0.00,24.5,23.4,00.0,33.3,26.5,15.7,-000.7,0012.63,0009.67,0009.38
2022-11-04 19:42:00,,0820.2,5.02,0.00,24.6,23.4,00.0,33.3,26.5,15.7,-000.7,0012.82,0009.70,0009.42
2022-11-04 19:43:00,,0820.2,4.99,0.00,24.6,23.4,00.0,33.3,26.5,15.8,-000.7,0014.13,0009.69,0009.43
2022-11-04 19:44:00,,0820.2,5.00,0.00,24.6,23.4,00.0,33.3,26.5,15.7,-001.0,0014.43,0009.66,0009.43
2022-11-04 19:45:00,,0820.2,5.01,0.00,24.6,23.4,00.0,33.3,26.5,15.7,-001.0,0014.43,0009.66,0009.43
2022-11-04 19:46:00,,0820.2,5.00,0.00,24.6,23.5,00.0,33.3,26.5,15.7,-001.4,0014.67,0009.68,0009.44
2022-11-04 19:47:00,,0820.2,5.00,0.00,24.6,23.5,00.0,33.3,26.6,15.8,-001.5,0014.79,0009.72,0009.45
2022-11-04 19:48:00,,0820.1,4.99,0.00,24.6,23.5,00.0,33.3,26.6,15.9,-001.5,0015.16,0009.77,0009.49
2022-11-04 19:49:00,,0820.0,4.99,0.00,24.6,23.5,00.0,33.3,26.6,15.8,-001.6,0015.19,0009.78,0009.50
2022-11-04 19:50:00,,0820.0,5.01,0.00,24.6,23.5,00.0,33.4,26.6,16.2,-001.3,0014.65,0009.80,0009.51
2022-11-04 19:51:00,,0820.0,5.00,0.00,24.7,23.5,00.0,33.4,26.6,15.6,-001.4,0014.17,0009.83,0009.52
2022-11-04 19:52:00,,0820.0,5.00,0.00,24.7,23.5,00.0,33.4,26.6,15.4,-001.6,0014.24,0009.86,0009.54
2022-11-04 19:53:00,,0819.9,4.99,0.00,24.7,23.5,00.0,33.4,26.6,15.5,-001.4,0014.20,0009.87,0009.56
2022-11-04 19:54:00,,0819.9,5.01,0.00,24.7,23.5,00.0,33.4,26.6,15.6,-001.6,0012.82,0009.92,0009.59
2022-11-04 19:55:00,,0819.9,5.01,0.00,24.7,23.4,00.0,33.4,26.6,15.5,-001.7,0012.47,0009.95,0009.62
2022-11-04 19:56:00,,0819.9,4.98,0.00,24.7,23.4,00.0,33.4,26.6,15.7,-001.9,0012.96,0010.00,0009.66
2022-11-04 19:57:00,,0819.9,5.01,0.00,24.7,23.4,00.0,33.4,26.6,15.6,-001.7,0012.94,0010.03,0009.68
2022-11-04 19:58:00,,0819.9,5.01,0.00,24.7,23.4,00.0,33.4,26.6,15.8,-001.7,0012.95,0010.07,0009.71
2022-11-04 19:59:00,,0819.9,4.99,0.00,24.7,23.4,00.0,33.4,26.6,15.4,-001.7,0012.70,0010.07,0009.73
